Regional Weather Roundup
Issued by NWS Binghamton, NY

Home | Current Version | Previous Version | Text Only | Print | Product List | Glossary On
Versions: 1 2 3 4 5 6 7 8 9 10 11 12 13 14 15 16 17 18 19 20 21 22 23 24 25 26 27 28 29 30 31 32 33 34 35 36 37 38 39 40 41 42 43 44 45 46 47 48 49 50
000
ASUS41 KBGM 042110
RWRBGM
RWRBGM
BINGHAMTON REGIONAL WEATHER ROUNDUP
NATIONAL WEATHER SERVICE BINGHAMTON NY
500 PM EDT SAT JUL 04 2015

Note: "fair" indicates few or no clouds below 12,000 feet with no
significant weather and/or obstructions to visibility.

* = Station(s) that does not report precipitation, such as rain,
snow, etc, also no thunder or fog.

!NYZ009-015>018-022>025-036-037-044>046-055>057-062-042200
...CENTRAL NEW YORK...

CITY           SKY/WX    TMP DP  RH WIND       PRES   REMARKS
BINGHAMTON     CLOUDY    63  58  83 SW6       30.00S
CORTLAND       CLOUDY    68  61  77 S8        29.99S
DANSVILLE      MOSUNNY   78  63  59 NW16      29.94R
ELMIRA         PTSUNNY   73  64  73 SE8       29.94F
ITHACA         MOSUNNY   71  61  70 S12       29.98F
MONTICELLO     CLOUDY    68  57  68 CALM      30.00F
NORWICH        CLOUDY    66  61  82 SW3       29.99S
ONEONTA        MOSUNNY   66  57  72 SW5       30.01
PENN YAN       MOSUNNY   75  64  68 SE10      29.94S
ROME           CLOUDY    75  61  61 S5        29.94F
SIDNEY         CLOUDY    66  64  94 W3        29.99S
SYRACUSE       PTSUNNY   77  61  57 S7        29.92S
$$

!PAZ038>040-043-044-047-048-072-042200
...NORTHEAST PENNSYLVANIA...

CITY           SKY/WX    TMP DP  RH WIND       PRES   REMARKS
HAZLETON       CLOUDY    64  59  82 CALM      30.02S
SCRANTON       LGT RAIN  66  62  87 NE5       29.98S FOG
TOWANDA*       PTSUNNY   68  63  83 MISG      29.97F
$$
&&
KEY
WCI = WIND CHILL INDEX
VSB = VISIBILITY
HX  = HEAT INDEX
$$



USA.gov is the U.S. government's official web portal to all federal, state and local government web resources and services.